Voltar ao catálogo

NOAA 16 DEB

AtivoSSO
NORAD 41154·DEBRIS·🇺🇸 United States

Lançado Sep 21, 2000 de Vandenberg Space Force Base

Loading…

Próximas Passagens (próximas 24 horas)

TLE

AtualizadoSource: Space-Track

Época: Sep 14, 2026, 06:39 UTC

1 41154U 00055CM  26257.27720419  .00001804  00000-0  98484-3 0  9998
2 41154  98.7602 276.3037 0057252  84.8862 275.8842 14.12459602552174

Acompanhe NOAA 16 DEB em tempo real com AllMySat

Download on the App Store